Wind_Speed
3 3 3 3 4 4 4 4 4 4 3 3 3 2 2 2 3 2 2 3 3 3 4 4 3 3 3 3 3 3 3 4 4 4 4 4 4 4 4 4 4 4 3 4 4 4 5 5 6
4 4 4 4 5 5 5 5 4 4 4 3 4 3 3 3 3 3 3 4 5 4 4 4 4 4 4 4 4 4 4 5 5 5 5 5 5 5 5 5 5 5 5 5 5 5 5 5 6
4 4 5 5 6 7 6 5 5 5 4 4 4 4 4 4 4 4 5 5 6 5 5 5 5 5 5 5 5 5 5 6 6 6 6 6 7 6 6 5 6 6 6 6 5 6 6 6 7
4 5 5 6 6 6 6 5 5 5 5 4 4 5 5 5 5 5 6 6 6 6 6 6 6 6 6 6 6 6 6 6 6 7 7 7 7 7 7 6 7 7 7 7 7 7 8 7 8
5 6 6 6 7 6 5 5 6 5 5 5 5 5 6 6 6 6 6 6 6 6 6 7 7 7 7 7 7 7 7 7 7 7 8 8 8 8 8 8 8 8 8 8 8 8 8 8 9
5 6 6 6 7 6 5 5 5 5 5 5 6 6 6 6 6 6 6 6 6 7 7 7 8 8 7 7 7 8 8 8 8 8 8 9 9 9 9 10 10 9 9 9 10 10 10 10 10
5 6 6 5 5 6 5 5 5 6 6 6 6 6 6 5 5 6 6 6 6 7 7 7 7 8 8 7 8 8 8 8 9 8 8 9 9 9 10 11 10 10 10 10 11 11 11 10 10
5 5 5 5 5 5 5 5 5 6 6 6 6 7 6 6 5 6 6 5 6 6 7 7 7 7 7 8 8 8 8 8 8 8 8 9 9 9 10 10 11 10 10 10 11 11 11 11 11
5 5 5 5 5 5 5 5 5 5 5 6 6 6 6 6 6 6 6 6 6 6 6 6 6 7 7 7 7 8 8 8 8 8 9 9 9 9 9 10 10 11 11 11 11 11 11 11 11
5 5 5 5 5 5 5 5 5 5 5 5 6 6 6 6 6 6 6 6 6 6 6 6 6 7 7 8 8 8 8 8 9 9 10 10 10 10 10 11 11 12 12 12 12 12 13 13 12
5 5 5 6 5 5 5 5 5 5 4 5 5 5 5 6 6 5 5 5 6 6 7 7 7 7 8 8 8 8 9 9 10 10 10 10 10 11 11 12 12 13 13 13 13 14 14 14 14
6 5 5 5 5 5 4 4 5 5 5 4 5 6 6 6 6 5 5 6 6 7 7 7 8 8 8 8 9 9 9 10 10 11 11 11 11 12 12 12 13 13 14 15 15 15 15 15 15
6 6 6 6 6 6 5 5 5 5 5 5 5 6 6 6 5 5 5 6 6 7 8 7 8 8 9 9 9 9 10 10 11 11 12 12 12 12 12 13 13 14 14 15 15 15 15 16 15
7 7 7 6 6 6 6 5 5 5 5 5 5 6 6 6 6 6 6 6 7 7 7 8 8 8 9 9 10 10 10 10 11 11 12 12 12 12 12 13 13 14 14 14 15 15 15 16 16
7 7 7 6 6 6 6 5 6 6 6 6 6 7 7 6 6 6 6 7 7 7 8 8 8 8 9 9 10 10 11 11 11 11 11 11 12 12 12 13 13 13 14 14 15 16 16 16 16
7 6 6 6 6 6 6 5 5 6 6 6 7 7 7 7 6 6 7 7 7 7 8 8 8 9 9 10 10 11 11 11 11 11 11 11 12 12 13 13 13 14 14 14 15 15 16 16 16
7 6 7 7 6 6 6 7 6 6 7 7 7 7 7 7 7 7 7 8 8 8 8 8 8 9 10 10 11 11 11 11 11 12 12 12 12 12 12 13 13 13 14 14 15 15 16 16 17
7 7 7 7 7 7 7 7 7 6 7 7 7 7 8 8 8 9 8 9 9 9 9 9 9 9 10 10 11 11 11 11 11 12 12 12 12 12 12 12 13 13 14 14 14 15 16 16 16
9 8 8 8 9 9 8 7 7 7 7 7 8 8 9 9 9 9 9 9 9 9 10 10 10 10 10 11 11 11 11 11 12 12 12 12 13 13 13 13 13 13 14 14 15 16 16 16 16
9 9 9 9 9 10 9 8 7 8 9 9 9 9 10 11 10 10 9 9 10 10 10 10 11 11 11 11 11 11 11 11 12 12 12 13 13 13 13 13 13 13 14 14 15 15 16 16 16
9 9 9 10 10 10 10 9 8 9 10 10 9 9 10 11 11 12 11 11 10 10 11 11 11 11 11 11 11 11 12 12 12 12 12 12 12 12 12 12 13 13 13 14 15 16 16 16 16
9 9 10 10 10 10 10 9 8 9 10 10 9 9 10 11 12 12 12 12 12 12 12 12 13 12 12 12 12 12 12 12 12 12 12 12 12 12 12 13 13 13 14 14 15 15 16 16 16
9 10 10 10 11 11 11 12 9 10 11 10 10 10 10 11 12 13 13 13 13 14 14 14 14 14 13 13 13 13 13 13 13 13 13 13 13 13 13 13 13 14 14 14 14 15 15 15 15
10 10 11 12 12 12 11 12 10 10 11 11 10 10 11 12 13 14 13 14 15 15 15 15 15 15 14 14 14 14 14 14 14 14 14 14 14 14 14 14 14 15 15 15 15 15 15 15 15
11 11 12 13 13 13 12 13 11 11 12 11 11 11 11 12 13 14 14 14 15 15 16 16 16 15 15 15 16 16 15 16 15 15 15 15 15 15 16 15 15 16 16 16 15 15 15 15 16
11 13 14 15 15 14 13 14 12 13 13 13 12 12 12 12 13 13 13 14 15 16 16 17 17 16 16 16 16 17 17 17 17 17 16 16 16 16 16 16 17 17 17 17 16 16 16 17 17
12 13 13 15 16 16 15 14 14 14 14 14 13 13 13 13 14 13 13 15 16 17 16 16 16 17 17 17 17 17 18 18 18 18 18 17 17 17 17 17 17 18 18 17 17 17 18 18 18
13 14 15 16 17 16 16 15 15 15 15 15 14 14 14 14 14 15 16 16 16 17 17 17 18 18 18 18 18 18 19 19 19 19 19 19 19 18 18 19 19 19 19 19 18 18 18 19 18
15 15 15 16 17 18 17 16 15 16 17 17 17 17 17 16 16 17 17 17 17 18 18 18 18 18 19 19 19 20 20 20 20 20 20 20 20 19 19 19 19 19 19 19 19 19 19 19 19
15 16 16 17 19 19 19 17 16 18 18 19 19 18 19 19 18 18 18 18 18 19 19 19 20 20 20 21 21 21 21 21 21 21 20 21 21 21 20 20 20 19 19 19 20 20 20 20 20
Wind_Direction
228 222 212 214 228 231 229 212 207 209 204 204 213 215 200 208 220 214 216 238 244 236 234 229 225 227 229 238 250 253 256 255 256 261 251 244 243 244 249 251 248 248 250 252 249 250 247 240 237
241 234 234 235 241 242 236 227 219 218 221 231 244 242 225 229 234 230 229 239 249 249 247 248 241 240 243 250 256 260 261 258 254 259 260 249 247 247 254 253 254 254 256 257 260 260 260 253 252
249 247 248 249 248 243 238 231 233 234 236 240 243 243 238 241 245 244 240 242 249 251 250 250 247 246 245 249 253 259 261 258 255 255 261 255 250 249 255 258 261 262 261 261 263 262 265 266 262
260 258 255 255 255 249 243 232 233 238 245 249 245 243 239 243 249 250 250 249 248 245 248 252 253 252 253 253 255 261 262 266 264 264 265 264 254 252 252 261 266 269 270 269 267 267 269 273 274
261 262 259 259 259 254 244 236 235 238 247 248 246 244 244 250 254 255 256 253 250 246 249 254 255 257 260 259 259 261 262 263 266 271 270 271 264 264 261 265 267 268 272 272 272 273 274 277 277
261 263 261 262 257 254 249 242 244 240 242 245 247 245 247 253 253 255 257 256 257 254 253 256 255 254 256 259 260 262 263 263 265 266 269 271 269 269 268 267 266 269 270 272 275 277 276 278 275
260 263 263 263 261 257 249 248 248 246 247 246 243 244 246 249 253 257 259 260 261 260 257 256 256 255 256 258 260 265 267 266 264 266 268 269 269 269 268 266 265 267 270 273 275 276 278 279 277
269 267 266 264 265 262 257 252 250 247 249 253 247 245 245 249 256 258 255 257 259 259 257 255 254 257 256 256 258 263 265 267 266 267 269 267 266 267 267 264 263 265 268 271 274 276 276 275 274
271 264 268 268 266 268 268 264 259 256 260 258 252 249 249 250 253 255 253 251 254 255 255 256 256 257 255 256 260 263 264 265 266 269 274 272 270 269 268 267 268 266 269 273 276 276 277 276 274
267 265 265 267 269 271 271 263 261 261 263 259 253 250 251 250 249 249 251 246 248 249 252 259 262 260 258 258 261 263 265 268 270 271 273 275 275 275 273 270 270 270 273 275 276 277 278 277 275
268 262 265 265 267 270 272 275 271 262 260 258 255 251 247 248 250 253 252 249 251 251 251 255 260 262 262 263 265 265 267 271 273 274 276 278 277 277 276 274 273 272 274 275 276 278 278 277 275
268 265 261 262 265 268 266 274 270 262 259 253 252 251 247 249 250 254 253 253 254 256 258 259 262 264 265 266 267 268 269 272 275 277 277 277 276 276 278 280 277 275 275 276 276 277 277 277 275
263 262 261 262 262 263 262 260 261 261 256 252 249 250 254 255 254 256 257 259 261 264 262 264 266 265 267 267 269 268 268 272 275 277 277 276 277 279 280 281 281 280 279 279 279 279 278 276 276
262 263 263 262 260 260 260 259 256 259 258 257 252 254 257 253 252 256 262 266 265 267 264 264 268 269 271 272 272 272 271 274 278 279 279 279 279 280 280 280 282 282 280 280 280 280 280 278 277
259 259 256 253 254 258 259 259 261 262 261 259 258 255 254 254 254 257 263 264 265 268 268 268 270 271 274 275 275 277 276 275 279 282 282 280 280 281 280 280 280 281 282 282 281 279 280 280 280
255 251 246 247 250 256 257 258 260 265 266 263 262 261 258 257 257 258 262 266 266 268 270 272 274 274 275 276 277 278 278 277 279 281 282 282 281 281 280 281 282 282 283 283 284 282 282 281 279
245 240 242 249 249 260 264 261 260 268 267 265 266 261 260 258 257 258 260 265 268 271 274 278 278 277 277 276 277 276 278 278 278 280 282 284 283 283 283 285 286 284 284 285 286 286 286 284 281
246 245 246 251 257 263 267 264 265 266 266 267 265 263 261 263 263 262 264 267 270 273 277 280 281 280 277 275 275 276 279 280 280 282 283 284 285 285 285 285 285 286 287 288 287 287 287 285 282
248 246 250 253 260 262 264 266 266 270 268 267 263 263 264 265 263 263 263 269 273 276 278 281 282 283 281 275 273 274 276 278 281 283 284 283 284 286 287 286 284 286 287 288 288 288 288 286 282
254 259 258 259 260 261 265 268 269 272 271 272 271 269 266 265 267 269 271 273 276 278 277 279 281 282 282 279 276 274 274 276 280 281 283 284 285 286 287 288 287 288 289 290 290 289 288 285 281
261 266 263 259 258 263 270 269 271 272 270 269 271 273 271 270 270 271 272 272 274 277 277 277 278 278 279 279 279 277 276 278 279 281 283 285 285 287 289 292 293 292 292 293 292 290 289 286 282
264 266 261 259 262 262 268 273 266 267 266 269 272 274 272 271 270 271 270 267 270 273 274 274 273 274 275 275 276 277 277 277 278 281 283 284 286 289 291 294 297 297 297 296 295 293 292 289 283
265 264 260 261 266 262 263 268 266 264 263 267 275 274 270 268 270 270 267 266 267 269 271 271 272 272 272 272 274 276 275 275 276 279 283 284 285 288 292 293 295 298 300 300 298 295 293 291 286
268 262 261 263 265 263 263 266 267 266 268 267 273 277 278 272 272 273 269 264 265 267 268 270 273 271 271 272 272 274 273 272 274 278 282 284 284 285 289 292 295 297 297 299 299 297 293 291 288
263 260 260 263 263 263 262 262 268 268 269 270 270 275 277 277 276 276 274 269 267 267 266 267 272 271 272 273 272 272 272 271 274 277 281 283 283 282 283 288 292 295 296 297 298 297 296 294 290
264 262 261 266 269 269 267 266 266 265 267 271 274 276 275 276 276 276 279 277 268 266 266 268 270 271 271 273 273 272 272 272 273 275 279 280 281 281 282 284 287 291 292 293 294 296 296 295 293
266 264 265 267 270 271 269 269 269 267 271 274 275 278 277 278 281 281 282 281 277 273 273 271 272 272 272 271 273 273 272 272 272 274 278 278 279 280 282 283 286 288 289 290 291 292 293 293 293
266 267 265 266 269 271 272 271 269 270 274 274 275 279 278 279 282 283 283 283 279 276 276 275 273 273 272 271 271 272 273 272 271 273 274 276 278 281 282 282 284 286 288 289 289 291 294 293 293
267 265 265 266 268 270 272 271 271 271 273 276 277 279 277 279 278 279 282 282 280 276 275 274 273 273 272 270 270 270 272 272 271 270 272 274 276 279 281 282 283 285 287 288 288 290 292 293 292
266 265 265 268 270 271 273 271 268 269 272 272 273 276 277 279 276 275 278 279 278 276 275 274 273 274 273 271 271 271 271 271 271 270 271 273 275 277 280 281 282 284 286 288 289 290 291 291 291
Height
5865 5865 5866 5867 5868 5868 5867 5868 5867 5867 5868 5868 5868 5869 5869 5870 5871 5874 5872 5870 5870 5871 5871 5871 5871 5872 5873 5873 5873 5874 5874 5874 5874 5875 5875 5875 5875 5875 5875 5875 5875 5875 5875 5875 5875 5875 5875 5875 5875
5865 5865 5866 5867 5866 5867 5867 5867 5866 5867 5867 5867 5867 5868 5869 5868 5869 5870 5869 5869 5870 5870 5870 5871 5871 5871 5872 5872 5873 5873 5873 5873 5874 5874 5874 5874 5874 5874 5874 5874 5874 5874 5874 5874 5874 5874 5874 5874 5874
5864 5864 5866 5865 5865 5866 5866 5866 5866 5866 5866 5867 5867 5867 5868 5868 5868 5868 5868 5868 5868 5869 5869 5869 5870 5870 5871 5871 5872 5872 5872 5872 5872 5873 5873 5873 5873 5873 5873 5873 5873 5873 5873 5873 5873 5873 5873 5873 5873
5864 5864 5865 5865 5864 5865 5865 5865 5865 5865 5865 5866 5866 5866 5866 5867 5867 5867 5867 5867 5867 5868 5868 5868 5868 5869 5869 5870 5870 5871 5871 5871 5871 5871 5871 5871 5871 5871 5872 5872 5872 5872 5871 5872 5872 5872 5872 5872 5871
5863 5863 5864 5863 5863 5863 5863 5863 5864 5864 5864 5865 5865 5865 5865 5865 5865 5865 5865 5866 5866 5866 5866 5867 5867 5867 5868 5868 5869 5869 5869 5870 5870 5870 5870 5870 5870 5870 5870 5870 5871 5870 5870 5870 5871 5870 5870 5870 5869
5862 5862 5862 5862 5862 5862 5862 5862 5862 5863 5863 5863 5863 5863 5863 5864 5864 5864 5864 5864 5864 5865 5865 5865 5865 5866 5866 5867 5867 5867 5868 5868 5868 5868 5868 5868 5868 5868 5869 5869 5869 5869 5869 5869 5869 5869 5868 5868 5867
5861 5861 5861 5861 5860 5860 5861 5861 5861 5861 5862 5862 5862 5862 5862 5862 5862 5862 5862 5862 5863 5863 5863 5863 5864 5864 5865 5865 5865 5866 5866 5866 5866 5866 5866 5866 5866 5866 5866 5866 5867 5867 5867 5867 5867 5867 5866 5866 5865
5860 5860 5859 5859 5859 5859 5859 5859 5859 5860 5860 5860 5860 5860 5861 5861 5861 5861 5861 5861 5861 5862 5862 5862 5862 5863 5863 5863 5864 5864 5864 5864 5864 5864 5864 5864 5864 5864 5864 5864 5864 5864 5864 5864 5864 5864 5864 5864 5863
5859 5860 5858 5858 5858 5858 5858 5858 5858 5858 5858 5858 5859 5859 5859 5859 5859 5859 5860 5860 5860 5860 5860 5861 5861 5861 5861 5862 5862 5862 5862 5862 5862 5862 5862 5862 5862 5862 5862 5862 5862 5862 5862 5862 5862 5862 5861 5861 5861
5857 5857 5857 5857 5857 5857 5856 5857 5857 5857 5857 5857 5857 5857 5857 5858 5858 5858 5858 5859 5859 5859 5859 5859 5859 5859 5860 5860 5860 5860 5860 5860 5860 5860 5860 5860 5860 5859 5859 5859 5859 5859 5859 5859 5859 5859 5859 5859 5859
5856 5856 5855 5855 5855 5855 5855 5855 5855 5855 5855 5855 5855 5856 5856 5856 5856 5856 5857 5857 5857 5857 5858 5858 5858 5858 5858 5858 5858 5858 5858 5858 5858 5858 5858 5857 5857 5857 5857 5857 5857 5856 5856 5856 5856 5856 5856 5856 5856
5854 5854 5854 5854 5853 5853 5853 5853 5853 5854 5854 5854 5854 5854 5854 5855 5855 5855 5855 5855 5856 5856 5856 5856 5856 5856 5856 5856 5856 5856 5856 5856 5856 5855 5855 5855 5854 5854 5854 5854 5854 5853 5853 5853 5853 5852 5852 5852 5852
5852 5852 5852 5852 5851 5851 5852 5852 5852 5852 5852 5852 5853 5853 5853 5853 5853 5853 5853 5854 5854 5854 5854 5854 5854 5854 5854 5854 5854 5853 5853 5853 5853 5853 5852 5852 5851 5851 5851 5851 5850 5850 5850 5849 5849 5849 5848 5848 5848
5850 5850 5850 5850 5850 5849 5850 5850 5850 5850 5850 5850 5851 5851 5851 5851 5852 5852 5852 5852 5852 5852 5852 5852 5852 5852 5852 5851 5851 5851 5851 5850 5850 5849 5849 5848 5848 5848 5847 5847 5847 5846 5846 5845 5845 5845 5844 5844 5844
5848 5848 5848 5848 5848 5848 5849 5849 5848 5848 5848 5848 5849 5849 5849 5849 5850 5850 5850 5850 5850 5850 5850 5850 5850 5849 5849 5849 5848 5848 5847 5847 5847 5846 5846 5845 5845 5844 5844 5843 5843 5842 5842 5841 5841 5841 5840 5840 5840
5846 5846 5846 5846 5846 5846 5848 5847 5846 5846 5846 5847 5847 5847 5847 5848 5848 5848 5848 5848 5848 5848 5847 5847 5847 5847 5846 5846 5845 5845 5844 5844 5843 5843 5842 5842 5841 5841 5840 5840 5839 5839 5838 5837 5837 5836 5836 5836 5835
5844 5844 5844 5845 5844 5844 5845 5844 5844 5844 5844 5845 5845 5845 5845 5846 5846 5846 5846 5845 5845 5845 5845 5845 5844 5844 5843 5843 5842 5841 5841 5840 5840 5840 5839 5838 5838 5837 5837 5836 5836 5835 5834 5834 5833 5832 5831 5831 5830
5842 5842 5842 5842 5842 5842 5842 5842 5842 5842 5842 5842 5843 5843 5843 5843 5844 5844 5844 5843 5843 5843 5842 5842 5841 5841 5840 5839 5839 5838 5838 5837 5837 5836 5836 5835 5834 5834 5833 5833 5832 5831 5830 5830 5829 5828 5827 5827 5826
5839 5839 5839 5840 5839 5839 5839 5840 5840 5840 5839 5840 5840 5840 5841 5841 5841 5841 5841 5841 5840 5840 5839 5839 5838 5838 5837 5836 5836 5835 5835 5834 5833 5833 5832 5831 5831 5830 5830 5829 5828 5827 5826 5825 5825 5824 5823 5822 5821
5836 5836 5836 5837 5836 5836 5836 5837 5837 5837 5837 5837 5837 5838 5838 5838 5838 5838 5838 5838 5837 5837 5836 5836 5835 5835 5834 5833 5833 5832 5832 5831 5830 5830 5829 5828 5827 5827 5826 5825 5824 5823 5822 5821 5820 5819 5818 5817 5817
5833 5834 5834 5834 5834 5834 5834 5835 5835 5834 5834 5834 5834 5834 5835 5835 5835 5835 5835 5835 5835 5834 5833 5833 5832 5832 5831 5830 5830 5829 5828 5828 5827 5827 5826 5825 5824 5823 5822 5821 5820 5819 5818 5817 5816 5815 5814 5813 5812
5831 5831 5831 5831 5831 5831 5832 5832 5832 5831 5831 5831 5831 5831 5831 5831 5831 5831 5831 5831 5831 5831 5830 5830 5829 5828 5828 5827 5826 5826 5825 5825 5824 5823 5822 5822 5821 5820 5819 5818 5816 5815 5814 5813 5811 5810 5809 5808 5807
5828 5828 5828 5828 5828 5828 5829 5828 5830 5829 5828 5828 5828 5828 5828 5828 5828 5828 5828 5828 5828 5827 5827 5826 5825 5825 5824 5824 5823 5823 5822 5821 5821 5820 5819 5818 5817 5816 5815 5814 5813 5812 5810 5809 5807 5806 5805 5804 5803
5825 5825 5825 5825 5825 5825 5826 5825 5826 5826 5825 5825 5825 5825 5824 5824 5824 5824 5824 5823 5823 5823 5822 5822 5822 5821 5821 5820 5820 5819 5818 5818 5817 5816 5816 5815 5814 5813 5811 5810 5809 5808 5806 5805 5804 5802 5801 5800 5799
5821 5822 5822 5821 5821 5822 5822 5821 5823 5822 5821 5821 5821 5821 5821 5821 5820 5820 5819 5819 5819 5818 5818 5818 5817 5817 5816 5816 5815 5815 5814 5814 5813 5813 5812 5811 5810 5809 5808 5806 5805 5804 5802 5801 5800 5798 5797 5796 5795
5818 5818 5818 5818 5817 5818 5818 5817 5819 5817 5817 5817 5817 5817 5817 5816 5816 5816 5815 5815 5814 5814 5813 5813 5813 5812 5812 5811 5811 5810 5810 5809 5809 5808 5808 5807 5806 5804 5803 5802 5801 5800 5798 5797 5795 5794 5793 5792 5790
5814 5814 5814 5814 5812 5812 5813 5813 5814 5813 5813 5813 5813 5813 5812 5812 5812 5811 5811 5810 5809 5809 5808 5808 5808 5807 5807 5807 5806 5806 5805 5805 5804 5804 5803 5802 5801 5800 5799 5798 5796 5795 5794 5793 5791 5790 5789 5787 5786
5810 5810 5810 5809 5808 5807 5808 5808 5809 5809 5809 5809 5809 5808 5808 5808 5807 5807 5806 5805 5804 5804 5804 5803 5803 5803 5802 5802 5801 5801 5800 5800 5799 5798 5798 5797 5796 5795 5794 5793 5792 5790 5789 5788 5787 5785 5784 5783 5781
5806 5805 5804 5804 5804 5803 5803 5806 5805 5804 5804 5804 5804 5804 5804 5803 5803 5802 5801 5800 5799 5799 5798 5798 5798 5797 5797 5796 5796 5796 5795 5794 5794 5793 5792 5792 5791 5790 5789 5788 5786 5785 5784 5783 5782 5780 5779 5778 5776
5801 5800 5800 5800 5799 5798 5798 5802 5800 5799 5798 5798 5799 5799 5799 5798 5797 5797 5796 5795 5794 5793 5793 5792 5792 5792 5791 5791 5790 5790 5789 5789 5788 5787 5786 5786 5785 5785 5784 5782 5781 5780 5779 5777 5776 5775 5774 5772 5771